Wind_Speed
74 74 74 75 75 75 75 75 76 76 76 76 76 77 77 77 78 78 79 79 80 80 80 80 80 80 81 81 82 82 83 83 84 84 85 86 87 88 89 90 91 93 93 94 94 95 95 96 96 98 99 99 100 101 102 102 102 103 102 100 95 91 90 88 86 87 89 90 91 94 95 92 90 86 83 82 80 80 78 73 71 68 68 68 66 63 59 58
76 76 76 76 76 76 75 75 76 76 76 76 77 77 77 78 78 79 79 80 80 80 81 81 81 81 82 82 83 83 84 84 85 85 86 87 87 88 89 90 91 91 93 93 94 95 96 96 96 97 99 99 100 101 102 103 103 103 102 100 95 91 91 90 88 89 90 90 92 94 95 94 92 88 85 83 81 81 80 76 73 70 69 69 67 65 62 60
77 77 77 77 77 77 77 76 76 76 77 77 77 77 78 78 79 80 80 81 81 81 81 81 82 82 82 83 83 84 85 86 86 87 88 88 88 88 89 90 90 91 92 93 93 94 95 96 97 97 98 99 100 101 102 103 104 104 103 99 95 93 91 90 91 92 91 90 91 94 95 94 94 91 86 83 82 82 81 79 75 72 71 70 68 66 63 62
75 76 76 77 78 78 78 78 79 79 79 79 79 80 80 81 81 82 82 83 83 83 83 83 83 83 83 83 84 84 85 85 86 88 88 89 89 89 90 90 91 91 92 93 93 94 95 96 97 97 98 99 100 101 102 103 104 104 102 99 97 95 94 93 93 93 92 90 90 93 95 95 95 94 89 84 83 82 82 82 78 74 72 70 69 67 64 63
70 72 73 74 75 76 77 77 78 79 79 79 80 80 81 81 82 82 83 83 83 83 82 82 82 83 83 83 83 84 84 85 86 88 88 89 89 90 91 91 92 92 93 93 94 94 95 95 96 97 98 99 100 101 102 103 104 103 101 100 99 98 97 96 95 94 93 92 91 93 95 96 96 95 91 86 83 82 82 83 80 76 73 71 70 68 65 64
65 66 68 69 70 71 72 73 74 75 75 76 76 77 78 78 79 79 80 80 80 80 80 80 80 80 81 82 82 83 84 84 86 87 87 88 89 90 91 92 92 93 93 94 94 95 95 96 97 98 98 98 100 101 103 104 104 102 100 101 101 100 99 98 97 95 94 93 92 93 93 94 96 96 94 89 84 82 83 83 82 79 75 73 71 70 67 65
59 61 63 64 65 66 67 68 70 70 71 72 72 73 74 75 75 76 76 76 77 77 77 77 78 78 79 80 80 81 82 83 85 85 86 87 88 89 90 91 92 93 93 94 94 95 96 97 97 98 99 99 100 101 102 104 104 103 101 101 101 101 101 100 100 99 97 94 93 94 92 91 94 97 97 92 86 84 84 83 82 81 77 75 73 71 70 67
50 53 56 58 60 61 62 63 64 65 66 67 68 69 70 71 72 72 73 74 74 75 75 76 76 76 77 78 78 79 80 82 83 84 85 86 87 88 89 91 92 92 93 93 94 95 96 97 98 99 99 100 101 101 102 103 104 103 102 103 103 102 102 102 102 101 100 97 94 95 93 91 92 96 97 93 88 86 85 83 82 81 79 76 74 73 72 70
40 43 46 49 52 55 57 59 60 61 62 63 64 65 67 68 69 69 70 71 72 72 73 74 74 74 75 75 76 76 78 79 80 81 83 84 85 86 87 89 90 92 93 93 94 94 96 97 98 99 99 101 102 102 103 103 103 102 102 104 104 104 103 102 102 102 101 99 97 95 94 93 94 95 95 92 90 89 87 84 82 81 79 78 76 75 74 73
34 36 37 39 42 45 49 51 54 56 58 60 61 63 64 65 66 67 68 68 69 70 70 71 71 72 72 73 73 74 76 76 77 78 80 81 83 84 85 86 88 90 91 92 93 94 95 96 98 98 99 101 102 103 103 103 103 103 102 103 104 104 104 102 101 102 102 101 100 97 96 96 96 95 92 88 89 90 88 86 83 82 81 79 78 77 75 75
31 32 33 35 36 38 40 43 46 49 51 54 57 59 61 63 64 65 66 67 67 67 68 68 68 69 69 70 70 71 73 73 74 76 77 79 80 82 83 84 86 88 90 91 91 92 94 95 97 98 99 100 101 103 104 104 103 103 103 102 102 104 104 103 102 102 102 101 101 100 99 99 98 94 88 85 85 88 89 87 85 83 82 81 80 79 78 77
27 28 30 32 33 34 36 37 39 41 43 46 49 52 55 57 59 61 63 64 65 65 65 66 66 67 67 67 68 69 70 71 73 74 76 78 79 81 82 83 84 86 88 89 90 91 93 94 95 97 99 99 100 102 103 103 103 102 103 102 101 103 103 104 104 103 103 102 102 103 102 100 98 91 88 88 86 87 88 88 87 85 83 82 81 81 80 80
22 24 26 28 30 32 33 34 35 36 37 39 41 43 45 48 50 53 56 58 60 61 62 63 64 64 64 64 65 66 67 68 70 71 73 75 77 78 79 81 82 84 86 87 89 90 91 92 93 95 97 98 99 101 102 102 103 102 102 102 102 101 102 103 104 104 105 104 103 105 104 100 96 93 92 93 91 92 90 87 88 86 84 83 83 82 82 82
19 21 22 24 27 29 31 32 33 34 35 36 37 38 39 40 42 45 47 50 52 54 56 57 58 59 59 60 60 61 62 64 65 68 69 71 73 74 75 76 77 80 82 84 86 87 88 90 91 92 94 95 97 99 100 102 102 101 101 101 101 101 101 102 102 104 106 106 106 107 103 97 96 96 98 97 95 97 95 90 88 88 87 85 84 84 84 84
16 17 19 21 23 25 28 30 32 33 34 35 36 37 38 39 40 41 43 45 47 49 51 53 54 55 55 56 57 58 60 61 63 65 67 68 70 71 71 71 71 73 76 79 81 82 84 85 87 89 91 92 94 96 97 99 100 100 100 99 100 101 101 101 101 103 105 106 108 108 102 96 97 98 99 99 99 99 99 95 91 89 88 87 86 85 84 85
15 15 16 17 19 21 23 26 28 30 32 33 35 36 37 38 39 41 42 44 46 48 50 51 51 52 53 53 54 55 58 60 61 63 65 66 68 69 69 69 68 68 70 73 75 77 78 79 81 83 85 87 89 91 93 94 95 97 98 97 98 100 101 100 101 103 104 105 107 108 103 97 98 99 100 101 101 101 101 99 95 92 89 87 87 86 85 87
15 15 15 16 17 18 20 22 24 26 27 29 31 32 34 35 37 38 40 42 44 46 47 47 48 48 50 51 51 52 55 57 59 61 62 63 65 65 66 66 66 65 65 67 69 71 72 73 75 76 79 81 83 86 87 88 90 94 96 95 96 98 99 99 100 103 104 104 105 106 104 100 99 100 102 103 103 103 102 101 100 96 92 89 88 87 87 87
15 15 16 16 17 18 19 21 22 24 24 26 27 29 31 33 35 36 38 39 41 42 43 44 44 44 46 48 47 48 50 53 55 57 59 60 61 62 62 63 63 63 62 62 63 65 67 68 69 70 72 75 76 79 80 82 86 90 92 91 92 94 96 95 98 101 103 103 103 104 104 102 102 102 103 104 105 104 103 102 102 100 96 93 90 89 89 89
15 15 15 16 16 17 18 19 20 20 21 22 24 26 28 29 31 32 33 35 36 37 38 39 39 38 40 42 41 41 43 47 50 51 54 56 58 58 59 60 60 60 59 58 58 59 62 63 64 65 67 68 70 72 73 76 81 85 87 87 87 90 92 92 95 98 101 102 101 102 102 102 104 104 104 106 106 105 104 103 103 102 100 97 93 90 89 90
17 16 15 15 15 15 15 16 16 16 17 17 18 19 21 22 24 25 26 27 28 30 31 31 31 31 33 36 37 37 37 41 45 47 49 52 54 55 56 58 58 58 57 56 55 55 56 57 58 61 63 63 63 65 66 69 74 78 82 84 84 86 88 89 93 96 98 100 100 100 100 101 104 105 106 108 108 106 105 104 103 103 102 100 96 93 91 91
18 17 16 16 16 15 14 14 13 13 13 13 13 14 15 16 17 18 19 20 22 23 24 25 26 26 29 32 35 36 36 38 41 44 45 48 50 52 53 54 55 55 54 53 53 52 52 51 52 54 57 59 59 59 60 63 68 71 75 79 80 81 84 87 89 93 96 97 97 99 100 100 103 106 108 109 108 107 105 105 105 104 104 102 99 95 93 93
21 19 18 18 17 16 15 15 14 13 12 12 12 13 13 14 14 15 16 17 19 21 22 23 23 24 26 29 32 34 36 38 40 42 43 45 47 48 50 51 51 51 51 50 49 48 48 48 47 48 51 54 55 55 56 58 62 65 69 72 75 78 82 85 87 91 94 94 95 98 99 99 101 105 108 110 109 108 107 106 106 106 105 104 101 98 96 95
24 23 21 20 19 18 17 17 16 16 15 14 13 13 14 14 14 14 15 16 17 20 22 22 23 23 24 27 30 32 34 36 39 42 43 43 45 46 47 48 49 48 48 48 46 45 44 44 44 45 46 49 51 52 53 54 57 59 63 67 71 75 79 82 84 88 91 91 92 95 97 98 100 103 107 110 111 110 108 107 107 107 107 105 104 102 100 98
28 26 25 24 23 22 21 20 19 18 17 16 15 15 14 15 15 15 16 17 19 21 23 24 24 25 26 28 30 32 33 35 37 39 41 43 44 45 45 45 47 47 46 45 45 43 42 41 41 41 43 45 47 50 51 51 53 55 60 64 68 72 75 78 81 83 86 87 89 92 94 95 99 102 105 110 112 112 110 108 107 108 109 109 108 106 104 102
32 31 29 28 27 25 24 23 22 21 20 19 18 18 17 18 18 19 19 21 22 24 26 28 29 29 29 30 30 31 33 33 34 36 38 40 42 43 43 43 43 44 44 43 41 41 41 39 38 38 40 42 44 47 49 50 51 53 58 62 66 69 71 74 77 79 82 84 85 88 91 93 97 102 105 108 112 114 113 111 109 109 110 112 112 111 110 108
37 35 33 32 30 29 27 26 25 24 23 22 22 22 23 23 24 25 25 26 27 27 29 31 33 33 33 32 32 32 32 32 32 33 34 36 37 38 40 40 40 40 41 41 39 37 37 37 36 35 37 39 41 44 47 49 50 53 56 60 65 67 67 70 73 77 79 80 82 85 88 91 96 101 105 107 111 114 115 114 112 112 112 115 116 116 114 112
41 40 38 36 34 33 31 30 29 28 27 27 26 26 27 27 28 29 30 31 31 31 31 31 32 33 33 32 32 32 31 30 29 30 31 33 34 34 34 36 37 36 35 36 35 33 33 33 33 33 34 36 38 41 45 48 50 52 54 58 62 64 64 66 70 74 77 78 80 83 85 88 94 100 104 107 110 114 117 118 117 116 116 117 118 117 115 112
44 43 42 40 39 38 36 35 33 32 32 30 29 28 28 28 28 29 29 30 31 31 31 30 29 30 30 31 31 30 29 29 29 29 30 31 31 30 28 30 32 33 30 29 30 30 30 29 29 29 31 33 36 39 43 47 49 51 54 58 60 60 62 64 67 71 74 76 78 82 83 86 92 98 102 106 110 114 118 121 122 120 118 117 117 117 115 113
45 45 44 43 42 42 40 39 38 36 35 33 32 30 30 29 29 28 29 30 31 31 31 32 31 31 31 31 31 31 32 32 31 31 30 30 30 28 25 24 24 27 27 25 26 26 25 25 25 25 27 30 33 37 41 45 48 50 53 56 57 58 60 62 64 68 71 73 77 80 82 85 90 95 101 106 110 114 119 123 124 123 120 117 116 117 117 115
45 45 44 44 44 43 42 42 40 39 37 36 35 34 33 32 31 30 31 31 31 32 33 34 34 35 35 35 35 36 36 36 34 33 33 33 33 32 29 26 24 26 28 27 27 25 24 22 22 22 23 26 30 34 38 42 45 48 50 53 54 55 58 59 60 65 68 70 74 78 80 83 87 92 99 105 109 113 118 122 124 124 122 119 117 117 118 117
45 44 43 43 43 42 42 42 41 40 39 39 38 37 36 35 34 34 33 33 33 34 35 35 36 37 38 39 39 39 38 38 37 37 36 37 38 38 37 35 35 34 31 29 28 27 26 23 20 19 19 22 26 31 35 39 42 45 48 50 51 52 53 54 57 62 66 68 72 75 78 82 86 92 98 103 107 112 116 120 122 124 124 122 120 118 118 119
45 44 43 42 41 41 41 41 40 40 40 40 39 38 38 37 37 36 36 36 36 37 38 39 39 40 41 41 41 41 40 39 38 38 37 36 35 35 34 34 36 35 31 28 25 23 22 21 19 17 16 18 21 26 31 36 39 43 46 48 49 49 50 51 55 60 64 67 69 72 75 80 85 90 95 100 105 110 114 118 120 123 125 124 122 120 119 119
44 43 42 41 40 40 39 39 39 40 40 40 39 39 38 38 38 38 38 38 38 38 39 40 42 43 44 45 44 43 42 41 40 39 38 37 35 35 34 33 33 32 30 30 28 26 23 20 17 15 15 15 16 20 26 31 36 40 43 46 46 47 47 49 52 57 62 64 66 68 71 76 82 87 91 96 101 106 111 116 119 121 124 125 124 122 120 120
43 43 42 41 41 40 38 38 38 38 38 39 39 39 39 38 38 38 38 39 39 39 39 40 42 43 44 44 45 44 44 44 43 41 40 40 39 39 39 38 36 35 32 31 31 29 27 25 21 17 14 13 13 15 19 24 30 35 39 42 44 46 47 48 50 54 58 61 63 65 68 72 78 84 88 93 97 103 108 113 117 119 122 125 126 124 123 122
43 43 42 41 41 40 39 38 37 36 37 37 38 38 39 39 39 38 39 39 39 40 40 40 40 40 41 42 43 44 45 45 45 44 43 42 41 39 39 39 39 38 37 35 31 28 27 26 25 21 16 12 12 12 14 18 23 29 34 39 42 44 46 48 49 51 54 57 60 62 65 69 75 80 86 90 94 100 105 110 115 118 121 123 126 126 125 124
43 43 42 41 41 41 41 40 39 37 36 35 36 37 38 38 39 39 39 39 39 40 41 41 41 40 40 41 42 44 45 45 46 46 46 45 43 41 40 39 38 38 39 38 35 31 27 24 24 23 18 13 11 10 10 13 17 23 29 34 38 42 45 48 50 50 52 54 57 60 63 67 72 77 82 87 91 96 102 107 112 117 120 122 125 127 128 126
43 43 43 42 42 41 41 41 41 39 37 35 35 36 36 37 38 39 40 40 40 41 41 41 41 41 41 41 42 42 44 45 46 47 48 47 46 45 43 40 38 37 38 38 37 35 31 27 25 24 21 18 15 11 8 9 12 17 23 28 34 39 43 47 50 51 52 52 54 57 60 64 68 73 79 84 88 93 99 104 110 115 118 121 124 127 129 129
43 43 42 42 42 42 42 42 42 41 39 37 36 35 36 36 37 38 39 40 41 41 41 41 41 41 41 41 41 42 43 44 45 46 46 47 47 46 46 45 43 39 37 38 38 37 35 32 29 26 23 22 20 15 10 7 8 12 17 23 29 34 40 44 48 50 53 53 54 55 57 61 65 70 75 80 85 90 95 101 107 112 117 121 123 126 129 130
44 43 42 42 42 42 42 43 42 42 41 40 38 36 36 36 37 38 39 40 41 41 42 42 43 43 43 42 42 42 42 42 43 44 44 45 46 47 48 48 47 45 41 39 39 38 36 34 32 28 23 21 21 18 14 10 7 7 11 17 23 29 35 40 45 49 51 54 55 56 57 59 62 67 72 77 81 86 91 97 103 109 115 119 123 125 128 130
45 44 43 42 41 41 42 43 43 43 42 41 40 39 38 37 37 38 39 40 41 42 43 43 44 44 44 44 43 42 42 42 42 42 44 45 46 47 48 48 48 48 47 45 42 40 38 35 34 31 26 24 24 23 20 17 13 9 8 12 17 23 29 35 40 46 50 53 55 57 58 59 61 65 70 74 79 83 88 94 99 106 112 117 121 124 127 129
47 45 44 43 42 41 42 43 43 44 43 42 41 41 40 39 39 39 40 41 42 43 44 45 45 45 45 46 45 44 43 43 42 43 43 44 45 45 46 47 47 48 49 48 47 44 42 38 36 34 31 29 28 26 23 21 19 17 13 11 13 18 24 29 35 41 46 51 54 56 59 60 62 65 70 74 78 81 86 91 96 102 108 114 119 123 125 128
47 46 45 44 42 42 42 43 43 44 44 43 42 42 41 41 41 41 41 42 43 44 45 45 46 46 46 47 47 46 46 45 44 44 43 42 43 43 43 44 44 44 45 46 46 46 45 42 39 35 33 30 28 26 24 21 20 20 19 17 14 15 18 23 29 35 41 47 51 55 59 62 64 67 71 74 77 80 83 88 93 98 104 110 116 120 124 126
48 47 47 46 44 43 42 42 43 44 44 44 44 43 42 42 42 42 42 42 43 44 45 46 47 47 47 48 48 48 48 47 46 45 44 43 42 42 42 42 42 42 42 43 43 43 44 44 43 39 37 35 32 28 25 22 20 20 20 20 19 17 17 18 23 29 35 41 47 52 58 63 66 68 71 73 75 77 81 85 90 95 100 106 112 118 122 125
49 48 47 47 46 44 43 42 43 44 44 44 44 44 43 42 42 41 41 41 42 43 45 46 47 47 48 48 49 49 49 49 48 48 47 45 44 43 42 41 41 40 40 41 42 42 42 42 41 39 38 38 37 34 30 24 20 18 18 18 19 20 19 18 19 23 29 36 43 49 55 62 65 66 68 70 72 76 79 83 88 93 98 103 108 114 119 123
50 49 48 47 47 46 44 43 43 43 44 44 44 44 43 42 42 41 40 40 41 42 43 45 46 47 47 48 49 50 50 50 50 50 49 47 46 44 42 41 40 38 38 38 40 41 42 42 41 39 36 34 35 36 34 30 25 20 18 17 17 18 19 20 20 21 25 31 38 43 50 58 63 64 67 70 72 75 79 82 86 91 95 100 105 111 116 121
51 50 49 48 47 47 46 44 43 42 43 44 44 44 43 42 42 41 41 41 41 41 41 43 45 46 47 48 49 50 50 50 50 50 50 49 48 46 44 42 41 39 37 37 38 40 42 42 42 42 39 36 35 36 36 35 32 28 24 20 18 16 16 18 20 22 25 28 31 36 43 54 61 64 67 71 74 76 79 82 85 89 93 98 103 108 113 118
52 51 50 49 48 47 46 45 44 42 42 42 44 45 44 42 41 41 42 41 41 41 40 41 43 45 47 48 49 50 51 51 51 51 51 51 50 49 47 45 43 41 39 37 36 38 41 42 43 43 43 40 38 37 39 38 36 34 31 27 23 19 17 16 17 20 25 28 29 31 37 47 56 61 64 69 74 77 80 82 85 88 91 95 100 105 110 115
53 52 51 50 48 47 47 46 44 43 43 42 42 43 44 42 40 40 42 42 41 41 40 40 41 43 46 48 49 51 52 53 54 53 53 53 53 52 50 48 46 44 41 38 35 36 38 41 43 44 44 43 40 37 38 40 39 37 36 34 30 26 22 19 18 19 22 26 30 32 35 41 48 53 60 67 72 77 80 83 85 88 90 93 97 102 107 112
55 53 52 51 49 48 47 46 45 44 44 43 42 42 43 42 39 38 41 42 41 40 39 39 39 41 44 46 48 51 53 54 55 55 55 55 54 54 53 51 48 45 42 39 35 34 35 37 40 42 43 44 44 39 36 38 39 38 37 36 34 31 27 23 20 20 21 24 28 32 36 40 42 45 51 61 68 75 80 83 86 88 90 93 96 99 104 109
57 55 53 52 51 49 48 46 46 45 45 44 44 43 42 42 39 37 39 42 41 40 38 37 37 39 42 44 47 51 53 54 55 56 57 57 56 55 55 53 51 48 45 41 36 33 32 34 36 39 41 43 45 43 37 35 37 38 37 37 37 36 34 29 24 21 22 24 27 30 35 40 43 43 45 51 59 68 77 83 86 89 91 93 96 98 102 107
58 57 55 53 52 51 49 47 46 46 46 45 45 44 43 43 41 39 40 43 43 41 38 36 36 38 40 42 46 50 54 56 58 59 59 60 60 58 57 55 53 50 48 45 40 35 32 32 34 37 39 41 44 46 41 36 36 37 36 36 37 38 38 37 31 26 24 24 26 29 33 37 42 44 46 48 51 57 67 77 85 90 92 94 97 99 101 105
60 59 57 55 54 52 51 49 47 47 46 46 46 46 46 46 44 43 44 46 46 44 41 38 37 37 38 40 44 50 55 58 60 62 63 64 65 63 61 59 57 54 51 48 44 38 34 32 33 35 37 39 42 46 44 37 34 36 36 34 35 36 39 41 39 34 30 28 27 29 33 36 40 43 46 49 52 54 57 65 76 85 92 96 98 100 101 104
Wind_Direction
258 259 259 258 258 258 257 257 257 258 258 258 259 259 259 259 259 259 259 258 258 257 257 257 257 256 256 256 256 256 256 256 256 255 255 254 253 253 252 252 252 251 251 249 248 247 246 245 246 246 246 246 246 246 246 245 244 244 244 243 242 242 243 242 242 242 240 238 238 239 240 240 239 237 237 237 238 240 241 240 240 239 239 240 242 242 239 240
259 259 260 260 259 259 259 259 259 259 259 259 259 260 260 261 261 261 261 261 261 260 260 259 258 258 257 257 256 256 256 256 256 255 255 254 254 254 253 252 252 252 251 251 249 248 247 245 244 245 246 245 245 245 245 245 245 244 243 243 242 241 241 242 241 241 241 240 239 240 241 241 241 238 237 237 237 238 240 239 238 238 237 238 240 240 239 239
258 259 259 259 259 259 259 260 260 260 260 260 260 261 261 261 262 262 263 263 263 263 262 262 261 260 260 259 258 257 257 256 256 255 254 254 254 253 253 253 253 252 252 251 250 249 249 247 245 244 244 245 245 245 245 245 244 244 243 242 241 240 240 240 241 242 242 242 241 241 241 241 241 240 237 236 236 237 238 238 237 236 236 236 238 238 237 239
258 258 258 258 258 258 259 259 259 259 260 260 260 261 261 262 262 263 263 264 264 264 264 263 263 262 262 261 260 259 258 258 257 255 255 254 254 253 253 253 253 252 252 252 251 250 249 249 248 246 244 243 244 244 244 244 244 243 243 242 241 240 239 238 240 241 241 241 241 241 241 240 241 241 238 235 236 236 237 238 236 234 234 235 235 235 235 236
259 258 258 258 258 258 258 258 259 259 259 260 260 260 261 261 262 262 263 263 263 264 263 263 263 263 262 262 261 260 259 259 258 257 256 255 254 253 253 252 252 252 252 251 251 251 250 249 248 247 246 244 243 243 243 243 243 243 242 242 241 240 239 238 238 239 240 240 240 241 242 241 240 241 239 235 234 235 236 237 236 233 232 232 232 233 232 233
259 259 258 258 258 258 258 258 258 258 259 259 260 260 260 261 261 261 262 262 263 263 263 263 262 262 262 261 261 260 260 259 259 258 257 256 255 255 254 253 252 252 251 251 251 250 250 249 249 248 247 245 244 243 242 242 242 242 241 241 241 240 239 238 237 237 238 239 239 240 241 242 241 240 240 236 233 234 235 236 236 233 231 230 230 230 229 230
259 258 258 257 257 257 257 258 258 258 258 259 259 259 260 260 260 261 261 262 262 262 263 262 262 262 262 261 261 260 260 259 259 258 258 258 257 256 255 255 253 253 252 251 251 250 250 250 249 249 248 247 245 244 243 242 241 241 240 240 240 240 239 238 237 236 236 237 237 238 239 239 241 241 240 237 234 232 234 235 236 234 232 230 229 229 228 227
261 259 258 258 257 257 257 257 257 258 258 258 258 259 259 259 260 260 260 261 261 262 262 262 262 262 262 262 261 261 260 260 259 259 258 258 258 257 257 256 256 254 253 252 252 251 250 249 249 249 248 248 246 245 244 243 242 240 239 239 239 239 238 237 237 236 236 235 235 237 237 236 238 241 241 239 235 233 233 233 234 234 232 229 228 228 227 226
263 262 261 259 258 258 257 257 257 257 258 258 258 258 259 259 259 260 260 260 261 261 261 262 262 262 263 263 262 262 262 261 261 260 260 259 258 258 257 257 257 256 255 254 253 252 251 250 249 248 248 248 247 246 245 243 243 241 239 238 238 238 238 237 237 236 235 235 235 235 236 236 236 239 241 240 238 234 232 232 232 233 232 230 227 227 227 226
265 263 262 261 260 259 258 258 258 258 258 258 258 259 259 259 260 260 260 261 261 261 262 262 263 263 263 264 264 264 264 263 263 263 262 261 260 259 258 257 257 257 256 255 254 252 251 251 250 249 248 248 247 247 246 244 243 242 240 239 238 238 237 237 237 236 235 234 234 234 235 235 235 237 238 239 239 237 233 231 231 232 232 231 228 226 226 225
267 264 263 262 261 260 260 260 259 259 259 259 259 259 259 260 260 260 261 261 262 262 263 263 264 264 265 265 266 266 266 266 265 264 263 262 261 260 259 258 257 256 256 255 254 253 252 251 250 249 248 248 247 247 246 245 244 243 241 239 238 238 237 236 236 236 236 235 234 233 233 234 235 235 234 235 236 238 236 232 231 231 232 232 230 228 226 225
268 267 264 262 261 260 261 261 261 262 262 262 262 262 262 262 262 262 262 263 263 264 264 265 266 266 266 267 267 268 268 267 267 266 265 263 262 262 260 259 258 257 256 255 254 253 253 252 251 250 249 248 247 247 246 246 244 243 242 240 239 238 237 236 235 235 235 234 233 233 232 232 234 232 230 230 232 235 237 234 231 230 231 231 231 230 227 225
268 268 266 264 262 260 261 262 263 265 266 267 267 267 266 266 265 265 265 265 265 266 266 266 267 268 268 268 268 269 268 268 268 267 266 265 264 262 262 261 260 259 257 256 255 254 253 252 251 250 250 249 248 247 247 246 245 243 242 241 239 238 237 236 235 234 234 234 233 233 231 230 232 230 226 227 229 233 235 235 233 230 229 230 230 230 228 226
272 270 268 267 264 262 261 262 264 266 267 268 269 269 269 269 268 268 267 267 267 267 267 268 268 268 268 269 269 270 270 269 269 269 269 268 266 264 263 261 261 261 260 258 257 256 254 253 252 251 250 249 248 248 247 247 246 244 243 241 240 238 237 236 235 234 233 233 234 233 232 229 229 229 226 226 228 231 233 233 233 231 228 228 229 229 228 227
286 281 277 273 269 266 264 264 265 266 268 269 270 270 270 270 270 270 270 269 269 269 268 269 269 270 271 272 272 272 272 271 270 270 270 269 268 266 264 262 261 261 261 261 259 258 257 255 254 253 252 251 250 249 248 247 247 246 244 242 241 239 237 235 235 234 233 232 233 234 233 229 227 228 227 226 227 230 232 232 232 232 230 228 227 228 227 227
308 302 295 289 282 278 274 272 271 271 272 273 274 275 275 274 274 273 273 272 272 272 271 272 273 274 274 274 274 274 273 273 272 270 270 270 269 269 268 266 263 262 261 262 261 260 259 258 256 255 254 252 251 250 249 248 247 247 246 243 241 240 238 235 234 234 233 232 232 233 233 229 227 227 227 227 227 229 230 231 231 231 230 228 226 227 227 226
327 321 314 308 302 296 291 287 285 284 283 282 282 281 280 279 278 277 276 276 275 276 276 276 277 277 277 275 275 275 275 275 274 273 273 272 272 271 271 270 268 266 264 263 263 262 261 260 258 256 255 254 252 251 250 249 248 247 246 244 242 241 239 236 234 234 233 232 231 232 232 229 227 227 227 227 228 229 229 229 230 230 229 228 227 225 225 226
340 333 328 322 316 311 306 303 300 298 296 293 290 288 286 284 282 281 280 279 279 279 279 279 279 279 279 278 278 278 278 278 277 277 277 276 276 275 275 274 273 271 268 266 265 265 263 262 260 258 256 254 252 251 250 248 247 247 246 244 243 242 240 237 235 234 233 232 230 230 230 228 227 227 228 228 228 230 229 227 229 230 229 229 228 226 225 225
350 343 338 333 327 322 317 313 310 307 305 302 298 295 291 289 287 285 284 284 283 283 283 283 283 283 283 282 281 281 281 282 282 282 282 282 281 281 280 279 278 276 274 271 268 266 265 264 262 260 257 255 252 250 248 247 246 246 246 244 242 241 240 238 237 235 234 233 231 229 229 227 227 226 227 228 229 229 229 227 227 229 230 229 228 227 226 224
359 353 348 342 337 333 327 322 318 316 313 310 307 302 299 296 293 291 290 289 288 288 288 288 289 289 288 287 286 283 282 282 283 284 284 285 285 284 284 283 282 281 280 278 274 270 267 264 262 261 259 256 253 250 248 246 245 244 244 244 242 240 239 238 237 236 234 233 231 229 227 226 226 226 227 228 229 229 228 227 226 227 229 228 227 227 226 225
6 1 356 352 348 344 338 333 330 327 323 320 318 314 310 308 305 304 302 300 298 296 294 293 293 293 292 291 290 288 286 285 285 286 286 286 286 286 286 285 285 284 283 281 279 276 272 267 263 260 259 258 255 251 247 244 243 242 241 241 241 240 238 236 235 235 234 232 230 229 227 225 225 225 226 227 229 228 227 227 226 226 227 228 227 226 226 226
14 11 6 3 359 355 351 348 345 341 337 334 330 325 321 319 316 313 311 307 303 300 297 295 294 293 292 293 293 294 295 295 295 294 292 292 291 291 290 289 289 288 286 284 281 278 275 271 266 261 257 256 254 251 247 244 242 240 240 239 239 238 237 235 233 233 233 231 229 228 226 224 223 224 225 226 227 228 227 226 225 225 226 227 227 226 225 226
21 19 17 14 11 7 4 1 358 356 353 349 343 337 332 329 325 321 317 311 306 304 302 300 300 300 299 300 300 302 303 305 306 305 302 301 299 297 296 295 294 292 291 289 285 281 277 272 267 262 257 252 251 249 246 243 240 238 238 237 236 235 235 234 233 232 232 230 228 228 225 223 222 223 224 225 226 227 227 226 225 225 225 225 226 227 225 225
28 26 25 24 22 19 17 14 12 9 6 1 356 349 344 340 335 331 327 322 319 318 316 315 316 317 316 315 314 314 314 313 313 311 309 307 305 302 299 298 296 294 292 290 288 285 281 275 269 263 258 253 248 246 244 241 238 236 235 235 234 233 232 232 232 231 231 230 227 227 225 222 222 222 223 224 225 226 227 226 225 224 224 225 225 226 226 224
32 32 32 31 30 28 26 24 22 19 16 12 6 1 355 350 346 342 339 336 335 334 332 331 331 331 330 327 325 322 321 319 317 314 311 308 306 304 301 299 298 297 295 292 290 287 283 279 273 264 258 252 247 244 242 239 236 233 232 232 233 232 231 230 230 230 230 229 227 226 224 222 221 221 221 222 223 225 226 226 225 224 223 224 224 224 225 224
35 34 34 33 33 32 30 28 26 24 21 18 13 9 4 359 355 352 349 346 346 346 345 343 340 338 336 333 331 328 326 323 319 314 310 307 306 306 306 304 301 299 298 296 293 289 285 281 275 267 258 253 246 242 241 238 235 231 230 230 231 231 230 229 229 229 229 228 226 225 223 221 220 220 220 220 221 223 224 225 225 224 223 223 223 224 224 225
36 35 34 33 32 31 30 28 25 23 22 19 16 12 7 3 359 357 354 351 351 352 351 348 344 341 338 336 335 334 330 326 323 319 316 314 313 312 311 308 306 305 303 300 297 293 289 284 277 269 260 252 247 241 238 237 234 231 228 228 230 230 229 228 227 228 228 226 225 224 223 220 219 220 219 219 220 221 222 224 224 224 223 222 223 224 224 225
35 35 34 33 32 31 29 28 26 24 22 20 17 14 10 6 3 1 357 354 354 353 351 349 347 344 342 341 341 339 336 335 334 332 327 322 319 317 314 312 310 309 307 304 301 297 292 287 280 272 262 253 246 241 237 236 234 230 228 228 228 228 227 226 226 226 226 225 224 223 222 220 218 219 219 218 219 220 221 222 223 224 224 223 223 224 225 225
32 32 32 32 32 31 30 29 28 26 24 22 19 17 15 12 9 6 3 1 359 356 354 353 351 350 348 348 348 348 348 348 346 343 337 330 324 320 315 310 310 314 315 313 308 303 299 294 286 275 264 254 246 240 237 235 234 231 229 228 228 227 226 225 225 226 225 224 223 222 221 219 218 218 218 218 218 219 220 221 222 224 224 223 223 223 224 225
29 29 29 30 30 30 30 29 29 27 26 25 23 21 19 17 15 12 11 8 4 1 0 359 357 356 355 355 357 358 357 354 352 350 348 343 338 332 324 317 319 327 330 329 323 316 311 306 295 283 268 257 247 240 237 235 235 234 232 230 228 227 226 225 225 226 226 224 223 222 220 219 218 218 218 218 217 218 220 221 222 223 224 224 223 223 223 224
26 25 26 27 27 28 28 28 27 27 26 26 25 24 23 21 19 18 16 13 11 8 7 5 4 3 3 3 3 4 3 1 359 358 358 357 354 351 347 342 339 338 338 338 334 327 322 317 306 290 274 260 250 242 237 234 233 233 232 231 230 228 226 225 225 226 226 225 223 222 220 219 219 218 218 218 218 218 219 221 222 222 223 224 224 223 223 224
25 24 23 23 23 24 25 25 25 25 25 24 24 23 23 22 21 20 18 17 16 15 13 11 10 9 9 9 7 7 7 6 6 5 5 5 4 2 360 355 350 346 343 340 334 328 328 327 320 304 286 268 255 246 239 234 232 232 231 230 229 228 227 224 224 225 226 226 224 222 220 219 219 219 218 218 218 218 219 220 221 222 223 223 224 224 223 224
25 23 22 21 21 21 22 22 22 23 22 22 21 21 21 21 21 20 18 18 18 18 17 16 16 15 13 12 10 9 9 9 9 9 8 7 6 5 2 359 356 352 349 348 345 341 338 335 332 320 302 281 263 252 244 237 233 232 232 232 229 227 226 225 225 226 227 227 225 223 221 220 220 220 220 219 219 219 219 220 221 222 222 223 224 224 224 224
23 23 21 20 19 19 20 20 20 20 20 19 18 18 18 18 19 19 18 17 17 17 18 18 19 19 17 14 12 11 11 11 11 11 12 12 11 10 8 4 2 359 357 358 359 357 351 346 342 338 326 306 283 261 250 243 237 233 232 232 230 227 226 225 226 227 227 227 227 225 222 221 221 222 221 220 219 219 219 219 220 222 222 223 224 224 225 224
20 20 20 20 19 18 18 18 18 18 18 18 16 16 16 15 15 16 16 16 15 14 16 17 19 20 19 16 14 13 13 13 12 12 14 15 16 16 15 13 11 9 6 3 3 3 2 357 352 347 342 331 311 284 260 247 241 235 232 232 231 229 227 225 225 227 228 228 228 226 224 222 221 222 222 221 220 220 220 219 220 221 222 223 223 224 225 225
18 18 18 18 18 18 17 16 16 15 16 16 15 14 14 13 12 13 13 13 13 13 13 14 15 17 17 16 15 14 14 14 14 14 14 15 17 18 18 18 19 18 16 11 7 5 4 3 359 354 348 345 340 321 286 259 246 239 235 232 231 229 228 226 224 225 227 227 228 227 226 224 222 222 223 222 221 221 221 220 220 220 221 223 223 224 224 225
16 17 16 15 16 16 16 16 15 13 13 13 13 12 12 12 11 10 10 11 11 11 12 12 12 13 14 15 15 14 13 14 15 15 14 14 16 18 19 19 20 22 23 19 14 9 5 4 5 4 0 356 354 350 327 286 259 245 239 235 232 230 229 228 226 224 224 225 226 227 227 226 224 223 223 223 222 221 221 221 220 220 221 222 223 224 224 225
13 15 15 14 15 15 14 15 14 13 11 10 9 9 9 10 9 8 8 8 9 9 9 10 9 10 11 12 13 13 13 13 14 14 14 14 14 16 18 19 18 19 22 23 20 16 11 7 7 10 9 3 357 355 351 327 282 257 245 238 235 233 231 230 229 227 225 224 224 225 226 226 226 225 224 224 223 222 221 221 221 221 220 221 223 224 224 225
9 12 13 13 13 13 13 13 13 12 11 9 7 7 7 6 6 5 5 5 5 6 6 6 7 7 8 10 11 11 11 12 12 12 13 13 14 15 17 19 19 17 17 20 22 20 16 11 8 9 11 8 0 354 350 342 317 275 254 245 239 236 234 233 231 229 227 226 225 223 222 224 226 226 225 225 225 224 223 222 222 222 221 221 222 224 225 225
5 8 9 10 12 12 12 12 12 12 11 9 8 6 5 4 3 2 2 2 1 2 3 3 3 4 5 6 8 8 9 9 10 10 12 12 14 15 17 18 19 18 16 15 17 19 18 15 11 9 10 10 7 2 355 347 337 314 276 253 245 240 237 235 233 231 229 227 227 226 223 221 223 225 226 226 225 224 224 224 223 223 222 222 222 223 224 225
3 4 4 6 8 10 11 11 11 12 11 9 8 6 4 3 2 1 0 360 359 359 0 0 1 1 2 3 4 5 6 6 7 8 11 12 13 15 17 18 19 20 18 15 14 14 14 15 15 13 11 10 10 9 4 356 347 336 317 287 261 248 241 238 236 234 232 229 228 228 226 222 221 223 224 225 225 224 223 224 224 224 223 223 223 223 224 225
2 1 1 2 3 5 8 10 11 11 11 10 8 6 4 3 2 1 360 359 359 358 358 359 359 359 360 0 1 2 3 4 5 6 7 9 11 13 15 18 20 21 19 16 15 13 10 9 10 12 12 10 9 10 9 5 357 347 335 320 298 272 255 245 240 237 235 233 230 229 229 226 223 223 224 224 224 225 224 224 224 224 224 224 224 224 224 225
360 360 359 359 359 1 4 7 9 11 10 10 9 6 4 3 1 1 360 359 359 358 358 357 358 358 359 359 359 360 0 1 2 2 3 5 8 10 13 15 17 19 19 16 14 13 11 8 6 7 8 7 5 4 6 8 4 356 345 333 319 303 282 262 249 242 238 236 234 231 231 229 226 225 225 225 225 225 225 224 224 224 225 225 225 225 225 226
358 359 359 358 357 357 359 2 6 9 10 10 9 7 5 3 1 0 359 358 358 358 357 356 356 357 358 358 358 358 359 359 359 360 0 1 4 7 10 12 14 16 17 16 13 11 10 9 6 5 7 8 5 1 358 359 360 359 354 343 330 318 305 288 269 253 242 238 236 234 234 233 229 228 228 228 228 228 227 226 225 224 225 225 225 225 226 226
357 357 357 357 357 356 355 357 2 6 8 9 8 7 5 3 2 1 360 359 358 357 357 356 356 356 357 357 357 357 357 357 357 358 358 359 360 2 5 8 10 13 14 14 12 9 7 5 3 1 3 7 8 4 358 355 352 351 352 350 340 327 314 303 291 274 257 244 238 237 237 236 232 229 229 228 228 229 229 228 227 226 225 225 226 225 225 226
355 355 356 356 356 356 354 354 357 1 4 7 7 6 5 4 2 1 1 360 359 359 359 358 357 356 356 357 357 356 356 356 356 356 356 357 357 358 1 4 6 8 11 12 11 9 5 3 1 358 357 359 4 5 1 357 354 350 347 345 342 332 320 308 299 289 277 261 247 240 241 241 235 230 230 229 228 229 230 229 229 228 227 227 226 226 226 226
352 353 354 354 355 356 354 352 352 355 359 3 6 6 6 5 4 2 1 360 359 360 0 0 359 358 357 357 357 356 355 355 355 355 355 355 355 356 358 0 2 4 6 9 9 8 5 2 359 357 353 353 358 3 2 358 356 354 349 344 339 332 324 314 301 291 285 277 264 250 247 247 241 234 232 231 230 230 230 231 230 230 229 228 228 228 227 227
348 349 351 352 353 355 354 352 350 350 354 359 2 5 6 6 5 4 2 0 359 359 360 1 1 0 360 359 359 358 356 355 355 354 354 354 354 354 355 357 359 360 1 4 6 7 6 2 358 355 352 349 349 358 3 358 354 354 352 348 342 335 329 321 309 296 287 282 276 266 260 257 250 242 237 234 232 231 231 232 232 232 231 229 229 229 229 228
345 346 347 349 350 352 353 352 350 348 350 354 358 2 4 5 5 5 3 1 358 357 359 0 1 2 2 2 2 0 359 358 357 355 355 354 354 354 353 353 355 355 356 358 1 4 4 2 358 353 350 347 344 348 359 360 354 352 351 347 343 338 332 324 315 304 293 283 278 273 271 268 261 253 246 241 237 234 233 233 233 233 233 232 231 230 230 229
342 343 344 345 347 348 350 351 350 348 348 350 353 356 0 3 4 3 1 0 358 357 358 359 1 3 4 5 5 3 2 1 0 359 357 355 354 354 353 352 351 351 351 353 356 359 360 359 357 352 348 346 342 340 349 357 354 350 349 346 343 339 333 326 318 310 300 289 280 275 273 272 269 263 256 250 245 240 237 235 234 234 235 234 233 232 231 230
339 340 341 342 344 345 346 348 348 347 347 348 349 350 355 359 2 1 359 357 357 358 358 358 359 2 4 6 6 5 4 4 3 2 1 359 356 355 354 352 350 349 347 348 350 353 355 354 354 351 347 345 342 337 340 350 352 347 346 345 343 340 335 327 320 314 308 297 286 278 273 271 269 266 261 256 252 247 243 240 238 236 235 236 235 234 233 232
336 337 338 338 340 342 343 345 346 345 345 345 346 346 350 355 358 359 357 354 353 354 356 356 355 357 1 4 5 5 4 3 3 2 3 2 360 357 355 353 351 348 346 345 345 348 351 350 349 348 345 343 341 336 334 341 347 344 342 343 341 339 336 330 323 318 313 303 291 282 276 272 270 267 264 260 257 254 249 244 242 240 238 237 237 237 236 234
Height
10590 10591 10593 10594 10595 10596 10597 10598 10599 10600 10601 10601 10602 10603 10603 10603 10603 10603 10603 10603 10604 10604 10605 10607 10608 10609 10610 10611 10612 10612 10614 10615 10616 10618 10619 10620 10622 10623 10625 10626 10627 10629 10632 10636 10640 10643 10647 10651 10654 10654 10658 10661 10663 10667 10671 10675 10679 10684 10691 10699 10715 10723 10722 10724 10723 10725 10733 10737 10736 10736 10740 10747 10755 10765 10772 10777 10781 10781 10786 10794 10797 10799 10798 10799 10804 10809 10811 10812
10581 10582 10584 10585 10586 10587 10589 10590 10591 10592 10592 10593 10594 10595 10595 10594 10594 10594 10594 10594 10594 10595 10596 10597 10598 10600 10600 10601 10602 10603 10604 10605 10606 10608 10608 10610 10612 10613 10614 10615 10617 10619 10621 10624 10628 10631 10634 10638 10643 10644 10646 10649 10653 10655 10658 10663 10667 10673 10680 10689 10706 10711 10708 10711 10712 10714 10721 10727 10731 10731 10734 10740 10747 10757 10765 10771 10775 10775 10779 10786 10789 10791 10792 10793 10798 10803 10806 10807
10572 10574 10575 10576 10577 10578 10580 10581 10582 10583 10584 10585 10586 10586 10586 10586 10586 10585 10585 10585 10585 10586 10587 10588 10588 10589 10590 10591 10592 10592 10593 10594 10596 10597 10598 10600 10602 10603 10604 10605 10607 10609 10611 10613 10616 10620 10622 10625 10630 10635 10636 10638 10642 10644 10646 10651 10656 10661 10668 10682 10695 10695 10696 10701 10702 10707 10713 10717 10723 10724 10727 10733 10738 10746 10757 10764 10768 10770 10772 10776 10782 10784 10786 10788 10793 10798 10801 10803
10563 10564 10565 10567 10568 10569 10571 10572 10573 10574 10575 10576 10577 10578 10578 10578 10577 10577 10576 10576 10576 10577 10577 10578 10578 10579 10580 10581 10581 10581 10582 10584 10585 10585 10587 10590 10591 10593 10594 10595 10596 10598 10601 10603 10605 10608 10611 10613 10616 10621 10625 10628 10630 10632 10635 10639 10644 10650 10658 10672 10678 10679 10685 10691 10694 10700 10703 10706 10712 10715 10718 10724 10728 10734 10748 10758 10761 10764 10764 10767 10773 10777 10780 10783 10787 10792 10796 10798
10554 10555 10556 10557 10559 10560 10562 10563 10564 10565 10566 10567 10568 10569 10569 10569 10568 10568 10567 10567 10567 10567 10568 10569 10569 10569 10570 10570 10570 10571 10572 10573 10573 10574 10577 10579 10580 10582 10583 10585 10586 10587 10589 10592 10594 10596 10599 10602 10604 10607 10612 10616 10618 10621 10624 10626 10631 10640 10651 10657 10661 10666 10674 10681 10687 10690 10692 10696 10701 10705 10708 10714 10720 10726 10737 10749 10755 10757 10757 10758 10764 10769 10773 10776 10780 10785 10790 10792
10545 10546 10547 10548 10550 10551 10553 10554 10555 10556 10557 10558 10559 10560 10559 10559 10559 10559 10558 10558 10558 10558 10559 10559 10559 10560 10560 10560 10560 10561 10562 10562 10562 10564 10566 10567 10569 10570 10572 10573 10575 10576 10578 10580 10583 10585 10587 10589 10592 10594 10598 10603 10606 10609 10611 10615 10619 10629 10641 10643 10647 10655 10662 10670 10675 10678 10682 10687 10691 10696 10699 10703 10711 10717 10723 10736 10748 10749 10748 10751 10755 10760 10765 10769 10773 10778 10783 10786
10536 10537 10538 10540 10541 10543 10544 10546 10547 10548 10549 10550 10551 10550 10550 10550 10550 10550 10550 10550 10549 10549 10549 10549 10550 10550 10550 10550 10550 10551 10552 10551 10552 10554 10555 10556 10558 10559 10561 10561 10563 10565 10567 10569 10572 10574 10576 10578 10580 10582 10585 10589 10593 10596 10599 10603 10607 10618 10628 10630 10635 10641 10650 10657 10661 10667 10671 10676 10682 10685 10690 10694 10698 10705 10711 10724 10737 10740 10740 10744 10748 10753 10758 10761 10766 10770 10775 10780
10527 10528 10530 10531 10533 10535 10536 10537 10538 10540 10541 10541 10542 10542 10542 10541 10542 10542 10541 10541 10540 10540 10540 10540 10541 10540 10540 10541 10541 10542 10542 10541 10542 10544 10545 10546 10547 10548 10549 10550 10551 10553 10555 10558 10560 10563 10565 10566 10568 10570 10574 10575 10578 10584 10587 10591 10596 10607 10614 10617 10623 10629 10637 10643 10648 10655 10660 10667 10672 10674 10681 10686 10686 10692 10702 10714 10725 10730 10732 10736 10740 10744 10750 10755 10759 10763 10768 10772
10521 10521 10523 10524 10525 10527 10528 10529 10531 10532 10533 10533 10534 10533 10533 10533 10533 10533 10533 10532 10532 10532 10531 10531 10532 10532 10532 10532 10532 10533 10532 10532 10533 10534 10534 10536 10536 10538 10539 10539 10539 10540 10542 10545 10548 10551 10552 10554 10556 10558 10561 10562 10565 10570 10573 10579 10584 10593 10600 10605 10610 10617 10625 10631 10637 10643 10649 10657 10662 10667 10673 10676 10677 10682 10694 10705 10711 10719 10723 10728 10733 10736 10741 10747 10751 10755 10760 10765
10515 10516 10517 10517 10519 10520 10521 10522 10523 10524 10525 10525 10525 10525 10525 10525 10525 10525 10525 10524 10524 10524 10524 10524 10524 10524 10525 10524 10525 10524 10523 10524 10525 10524 10524 10524 10525 10526 10528 10528 10528 10528 10528 10531 10535 10538 10538 10541 10543 10545 10548 10550 10553 10555 10559 10566 10572 10579 10586 10593 10599 10606 10613 10620 10628 10633 10639 10646 10652 10660 10663 10665 10668 10674 10689 10698 10698 10705 10713 10720 10725 10728 10733 10737 10742 10747 10752 10757
10510 10511 10512 10512 10513 10514 10515 10515 10516 10517 10517 10518 10518 10517 10517 10517 10518 10517 10517 10516 10516 10516 10516 10516 10516 10517 10517 10517 10517 10516 10515 10515 10515 10514 10513 10513 10513 10513 10515 10516 10516 10516 10516 10517 10521 10524 10525 10528 10529 10532 10535 10537 10541 10542 10544 10551 10560 10566 10571 10582 10589 10593 10600 10610 10617 10622 10627 10634 10641 10648 10652 10654 10657 10672 10690 10690 10687 10692 10700 10711 10716 10720 10725 10728 10734 10739 10744 10749
10506 10507 10507 10508 10509 10509 10510 10510 10511 10511 10511 10511 10510 10510 10510 10510 10510 10510 10510 10509 10509 10509 10509 10509 10509 10509 10510 10510 10509 10508 10507 10506 10504 10503 10502 10501 10501 10501 10501 10503 10503 10503 10504 10504 10508 10510 10511 10514 10516 10519 10520 10524 10528 10528 10531 10538 10546 10553 10558 10569 10576 10580 10589 10598 10605 10610 10615 10622 10628 10632 10639 10645 10652 10673 10683 10674 10677 10681 10685 10699 10706 10712 10717 10719 10726 10731 10736 10740
10502 10503 10503 10504 10504 10505 10506 10506 10507 10507 10506 10506 10505 10505 10504 10504 10504 10504 10503 10503 10503 10502 10502 10502 10501 10501 10502 10502 10501 10500 10499 10497 10495 10492 10491 10490 10489 10490 10490 10490 10490 10490 10492 10492 10494 10496 10498 10500 10503 10506 10506 10510 10514 10514 10520 10526 10530 10538 10546 10554 10562 10570 10578 10584 10592 10599 10603 10609 10614 10616 10626 10642 10652 10664 10664 10659 10668 10670 10673 10687 10694 10703 10708 10710 10716 10721 10727 10731
10499 10499 10500 10500 10500 10501 10502 10502 10503 10502 10502 10501 10500 10499 10499 10499 10498 10498 10497 10496 10496 10495 10494 10494 10494 10493 10494 10494 10493 10492 10491 10489 10487 10483 10481 10479 10477 10478 10478 10479 10480 10479 10480 10480 10481 10482 10485 10487 10490 10493 10493 10497 10500 10503 10508 10511 10516 10526 10533 10540 10548 10558 10565 10571 10579 10585 10590 10597 10601 10602 10617 10641 10647 10646 10647 10651 10659 10660 10665 10675 10681 10691 10698 10701 10706 10711 10718 10722
10497 10497 10497 10497 10497 10497 10498 10498 10498 10498 10497 10496 10495 10494 10494 10493 10493 10492 10491 10490 10489 10488 10487 10487 10487 10487 10488 10487 10486 10485 10482 10480 10478 10474 10472 10469 10466 10466 10467 10469 10471 10471 10469 10468 10469 10470 10473 10476 10478 10480 10481 10484 10487 10490 10495 10498 10505 10512 10519 10528 10536 10542 10550 10559 10567 10570 10577 10586 10588 10592 10612 10635 10636 10631 10637 10642 10648 10652 10657 10664 10669 10678 10686 10692 10696 10701 10709 10713
10495 10495 10495 10494 10494 10494 10494 10494 10494 10493 10492 10491 10490 10489 10489 10488 10487 10486 10485 10484 10483 10481 10481 10481 10481 10481 10481 10480 10479 10476 10473 10470 10468 10465 10463 10460 10457 10456 10456 10457 10460 10462 10461 10459 10459 10460 10462 10464 10467 10469 10469 10472 10475 10478 10483 10488 10496 10499 10504 10514 10521 10527 10534 10545 10554 10556 10563 10573 10578 10585 10603 10622 10623 10623 10627 10630 10637 10643 10647 10653 10660 10667 10675 10683 10688 10692 10699 10704
10493 10493 10492 10492 10491 10491 10490 10490 10489 10489 10488 10487 10486 10485 10484 10483 10482 10481 10480 10478 10477 10475 10475 10475 10475 10474 10472 10471 10471 10468 10465 10461 10458 10456 10454 10452 10450 10449 10448 10448 10449 10452 10453 10452 10451 10451 10452 10453 10455 10457 10458 10460 10463 10467 10472 10480 10485 10484 10487 10498 10506 10512 10519 10532 10541 10542 10548 10559 10568 10576 10590 10608 10613 10614 10616 10618 10625 10631 10638 10645 10649 10657 10664 10672 10679 10684 10689 10695
10492 10491 10491 10490 10489 10488 10488 10487 10486 10485 10484 10483 10482 10480 10479 10478 10476 10475 10474 10473 10471 10470 10469 10469 10469 10468 10464 10463 10464 10462 10458 10454 10451 10449 10446 10444 10443 10442 10441 10440 10439 10441 10443 10444 10443 10442 10441 10442 10444 10446 10447 10448 10452 10455 10461 10468 10468 10467 10473 10484 10494 10499 10506 10521 10528 10529 10536 10546 10557 10566 10579 10595 10601 10602 10605 10607 10613 10620 10629 10636 10639 10647 10655 10662 10669 10676 10681 10686
10492 10491 10490 10489 10488 10487 10486 10485 10483 10482 10482 10481 10479 10477 10475 10473 10472 10471 10469 10468 10466 10465 10464 10463 10463 10462 10459 10457 10458 10458 10453 10448 10445 10444 10440 10437 10435 10435 10433 10432 10431 10430 10431 10433 10434 10433 10431 10432 10433 10434 10434 10437 10440 10444 10450 10454 10453 10456 10463 10471 10482 10487 10495 10509 10514 10517 10524 10533 10546 10557 10570 10582 10586 10593 10597 10596 10601 10610 10619 10626 10632 10638 10646 10653 10660 10668 10673 10679
10492 10491 10490 10488 10487 10486 10485 10484 10483 10481 10480 10479 10477 10475 10473 10471 10469 10468 10467 10465 10464 10462 10461 10460 10459 10458 10456 10453 10452 10452 10450 10445 10441 10439 10437 10432 10429 10429 10426 10424 10423 10422 10421 10421 10422 10422 10422 10422 10424 10423 10423 10426 10430 10434 10439 10442 10442 10447 10452 10457 10468 10475 10483 10494 10500 10504 10509 10520 10535 10545 10558 10569 10575 10584 10586 10583 10590 10601 10609 10618 10625 10630 10634 10642 10650 10659 10665 10671
10492 10491 10489 10488 10487 10486 10485 10483 10482 10481 10480 10478 10476 10474 10472 10470 10469 10467 10466 10464 10462 10460 10459 10458 10457 10456 10453 10450 10447 10445 10445 10442 10439 10435 10433 10429 10424 10423 10420 10417 10416 10414 10413 10412 10411 10411 10411 10413 10414 10415 10415 10416 10419 10423 10427 10430 10433 10437 10441 10446 10456 10463 10470 10478 10485 10489 10493 10506 10521 10530 10543 10556 10564 10572 10573 10575 10582 10591 10600 10607 10615 10621 10625 10632 10641 10650 10656 10660
10492 10491 10489 10488 10487 10485 10484 10483 10482 10480 10479 10477 10475 10473 10471 10470 10468 10467 10465 10463 10461 10458 10457 10456 10455 10454 10452 10448 10445 10442 10440 10437 10434 10431 10428 10424 10420 10417 10414 10411 10409 10406 10404 10403 10402 10402 10402 10403 10404 10406 10406 10406 10408 10412 10416 10420 10423 10427 10432 10438 10445 10450 10455 10462 10470 10474 10477 10492 10507 10514 10528 10544 10553 10559 10562 10568 10572 10578 10588 10596 10604 10612 10616 10624 10632 10639 10645 10648
10492 10491 10489 10488 10487 10485 10484 10482 10481 10479 10478 10476 10474 10472 10470 10469 10467 10465 10463 10461 10459 10457 10454 10454 10453 10452 10450 10447 10444 10441 10438 10435 10430 10426 10422 10418 10414 10411 10408 10405 10402 10399 10397 10395 10393 10393 10393 10393 10394 10395 10396 10397 10399 10401 10405 10409 10413 10420 10424 10429 10433 10436 10442 10449 10455 10460 10465 10480 10494 10501 10515 10531 10540 10546 10552 10558 10561 10567 10576 10585 10594 10601 10607 10615 10620 10625 10632 10637
10493 10492 10490 10488 10487 10485 10484 10482 10480 10479 10477 10475 10474 10472 10470 10468 10466 10464 10462 10459 10457 10455 10452 10451 10450 10449 10448 10445 10442 10439 10436 10433 10428 10422 10417 10413 10408 10405 10402 10399 10396 10393 10390 10388 10386 10385 10384 10384 10385 10387 10387 10389 10391 10392 10395 10399 10404 10410 10414 10417 10421 10424 10432 10438 10443 10451 10457 10468 10481 10489 10502 10519 10528 10534 10540 10546 10551 10557 10565 10575 10583 10589 10596 10602 10605 10611 10617 10623
10494 10492 10490 10489 10487 10485 10484 10482 10480 10478 10476 10475 10473 10471 10468 10466 10464 10462 10461 10458 10456 10454 10451 10448 10447 10446 10444 10442 10440 10436 10433 10429 10425 10420 10415 10409 10404 10400 10397 10394 10390 10386 10384 10382 10380 10378 10377 10376 10377 10378 10379 10380 10382 10385 10387 10391 10395 10399 10403 10406 10410 10414 10421 10428 10434 10441 10446 10457 10471 10478 10490 10506 10515 10520 10527 10533 10540 10547 10554 10562 10569 10576 10583 10587 10590 10594 10597 10602
10495 10493 10491 10489 10487 10485 10484 10482 10480 10478 10476 10474 10472 10469 10467 10465 10463 10461 10459 10457 10455 10453 10450 10447 10443 10441 10439 10437 10435 10432 10429 10426 10422 10417 10412 10407 10401 10396 10391 10388 10385 10381 10378 10375 10374 10372 10370 10370 10370 10370 10371 10372 10375 10378 10380 10383 10386 10389 10393 10397 10400 10405 10413 10420 10425 10431 10437 10448 10460 10467 10478 10492 10500 10506 10513 10520 10528 10535 10541 10548 10553 10559 10564 10567 10568 10572 10578 10586
10497 10495 10492 10490 10488 10486 10484 10482 10480 10478 10476 10474 10471 10469 10467 10464 10462 10460 10457 10455 10453 10451 10449 10447 10443 10440 10437 10434 10432 10429 10426 10423 10419 10414 10408 10403 10398 10394 10389 10383 10379 10376 10373 10370 10369 10367 10365 10364 10363 10363 10365 10366 10368 10371 10373 10375 10378 10381 10385 10388 10390 10397 10406 10412 10417 10422 10428 10438 10448 10456 10467 10479 10487 10492 10499 10509 10516 10521 10527 10532 10533 10535 10541 10547 10552 10561 10572 10581
10499 10496 10493 10491 10489 10486 10484 10482 10480 10478 10476 10474 10472 10470 10467 10465 10463 10460 10457 10455 10452 10450 10449 10447 10444 10441 10437 10433 10431 10427 10423 10419 10415 10410 10405 10399 10395 10391 10388 10382 10376 10372 10369 10366 10364 10362 10360 10359 10358 10358 10358 10360 10362 10364 10366 10368 10371 10374 10377 10379 10383 10391 10397 10403 10409 10413 10419 10428 10438 10445 10455 10466 10472 10477 10486 10496 10502 10506 10509 10509 10511 10517 10527 10538 10548 10557 10566 10575
10500 10497 10495 10492 10490 10487 10485 10483 10480 10478 10477 10475 10473 10470 10468 10466 10463 10461 10458 10455 10452 10449 10447 10444 10441 10439 10435 10432 10428 10424 10419 10414 10410 10406 10401 10396 10391 10387 10385 10382 10376 10370 10365 10363 10360 10359 10356 10354 10353 10353 10353 10354 10356 10358 10360 10362 10365 10368 10371 10374 10379 10386 10390 10395 10403 10407 10412 10420 10428 10434 10444 10453 10459 10467 10475 10480 10486 10490 10490 10491 10499 10509 10519 10530 10540 10548 10555 10563
10501 10499 10496 10493 10491 10489 10487 10484 10482 10480 10478 10476 10474 10471 10469 10467 10464 10461 10458 10455 10452 10448 10445 10442 10438 10435 10431 10427 10423 10419 10414 10410 10406 10402 10396 10390 10384 10379 10376 10373 10371 10367 10362 10358 10356 10354 10352 10351 10349 10348 10349 10349 10350 10352 10355 10358 10361 10364 10368 10371 10376 10380 10385 10392 10399 10402 10406 10413 10419 10426 10435 10443 10450 10458 10460 10463 10472 10477 10478 10482 10492 10501 10510 10519 10528 10536 10543 10551
10503 10501 10498 10495 10493 10491 10488 10486 10484 10482 10480 10477 10475 10473 10470 10467 10465 10462 10459 10456 10453 10449 10445 10441 10437 10433 10428 10424 10420 10417 10413 10408 10403 10398 10393 10387 10380 10374 10369 10364 10361 10359 10357 10355 10353 10351 10349 10347 10346 10345 10345 10345 10346 10348 10350 10352 10356 10360 10363 10367 10371 10376 10382 10389 10394 10396 10399 10405 10411 10418 10427 10435 10440 10443 10444 10451 10462 10467 10469 10475 10483 10492 10501 10509 10517 10526 10532 10539
10505 10503 10500 10498 10495 10492 10490 10488 10485 10483 10480 10478 10476 10473 10471 10468 10465 10462 10460 10456 10453 10449 10444 10440 10436 10431 10427 10423 10419 10415 10412 10407 10402 10398 10393 10389 10385 10380 10375 10369 10363 10359 10357 10355 10353 10351 10348 10346 10344 10342 10342 10341 10342 10344 10346 10348 10351 10355 10358 10362 10367 10373 10379 10384 10388 10390 10393 10397 10403 10412 10420 10426 10428 10430 10436 10444 10452 10457 10462 10467 10475 10483 10492 10499 10507 10515 10522 10529
10507 10505 10502 10500 10497 10494 10491 10489 10486 10483 10481 10478 10476 10474 10471 10468 10465 10462 10459 10456 10453 10449 10445 10441 10436 10430 10425 10421 10417 10413 10410 10406 10401 10397 10393 10389 10385 10380 10376 10372 10367 10362 10358 10354 10351 10348 10346 10345 10343 10341 10340 10339 10340 10341 10342 10345 10348 10351 10355 10359 10364 10369 10374 10379 10382 10384 10387 10392 10399 10407 10414 10419 10422 10425 10431 10438 10444 10449 10455 10460 10467 10474 10482 10489 10497 10505 10512 10518
10509 10506 10504 10501 10498 10496 10493 10490 10487 10484 10481 10479 10476 10473 10470 10468 10465 10462 10458 10455 10452 10449 10446 10441 10437 10432 10427 10422 10418 10414 10409 10405 10400 10396 10392 10388 10383 10379 10374 10370 10366 10362 10358 10355 10352 10348 10345 10342 10341 10340 10339 10337 10337 10338 10340 10342 10345 10348 10352 10356 10360 10365 10369 10374 10377 10380 10383 10388 10394 10401 10408 10413 10416 10418 10423 10429 10436 10441 10447 10453 10460 10466 10473 10480 10488 10495 10501 10508
10510 10507 10504 10502 10499 10497 10494 10491 10488 10485 10482 10479 10476 10473 10469 10466 10463 10461 10457 10454 10451 10447 10444 10441 10438 10434 10430 10425 10420 10414 10410 10405 10400 10396 10392 10388 10385 10381 10377 10372 10368 10363 10358 10355 10353 10351 10347 10344 10341 10340 10339 10337 10336 10336 10338 10340 10342 10345 10348 10351 10356 10361 10364 10368 10371 10375 10379 10384 10389 10395 10401 10404 10407 10410 10414 10420 10427 10432 10438 10444 10451 10457 10463 10470 10478 10485 10490 10497
10511 10508 10505 10502 10500 10497 10495 10492 10489 10486 10483 10480 10476 10473 10469 10466 10462 10459 10456 10453 10449 10446 10442 10439 10437 10434 10430 10425 10420 10415 10410 10405 10400 10395 10391 10388 10385 10382 10378 10375 10371 10366 10361 10356 10352 10350 10347 10345 10342 10339 10337 10337 10336 10336 10336 10337 10339 10342 10344 10347 10351 10355 10358 10361 10364 10368 10372 10378 10383 10388 10392 10396 10400 10403 10406 10412 10419 10424 10429 10435 10441 10447 10453 10459 10466 10472 10478 10485
10512 10508 10505 10503 10500 10497 10495 10492 10490 10487 10483 10480 10477 10473 10469 10466 10462 10458 10455 10452 10448 10445 10441 10438 10435 10432 10429 10425 10420 10415 10410 10405 10400 10395 10390 10387 10384 10382 10378 10375 10371 10368 10364 10359 10354 10349 10346 10344 10342 10339 10337 10336 10335 10335 10335 10336 10337 10339 10341 10344 10347 10350 10353 10355 10358 10361 10365 10370 10376 10381 10386 10390 10394 10397 10400 10405 10410 10414 10419 10424 10430 10437 10443 10448 10453 10458 10465 10472
10513 10509 10506 10503 10500 10497 10495 10492 10489 10487 10484 10481 10477 10473 10469 10466 10462 10458 10455 10451 10448 10444 10441 10438 10435 10432 10429 10425 10420 10416 10411 10406 10401 10397 10392 10388 10384 10381 10377 10373 10370 10367 10364 10360 10355 10351 10347 10344 10343 10342 10340 10337 10335 10334 10334 10334 10335 10336 10338 10340 10342 10345 10348 10350 10354 10357 10360 10363 10367 10372 10378 10383 10387 10390 10394 10397 10401 10406 10411 10415 10420 10426 10432 10436 10440 10445 10452 10459
10514 10510 10507 10504 10500 10497 10494 10492 10489 10486 10483 10480 10477 10473 10469 10466 10462 10458 10455 10451 10448 10445 10441 10438 10435 10431 10428 10425 10421 10417 10413 10408 10403 10399 10394 10390 10385 10381 10377 10373 10369 10365 10362 10359 10356 10352 10349 10346 10344 10343 10343 10340 10338 10336 10335 10334 10334 10334 10335 10336 10338 10340 10343 10345 10348 10351 10354 10357 10360 10363 10369 10375 10379 10383 10386 10390 10394 10400 10404 10408 10411 10415 10420 10424 10428 10433 10439 10445
10515 10511 10508 10504 10501 10498 10494 10491 10489 10486 10483 10480 10477 10473 10470 10466 10462 10458 10455 10451 10447 10444 10441 10437 10434 10430 10427 10425 10422 10418 10414 10410 10406 10401 10395 10390 10386 10382 10377 10373 10369 10364 10360 10357 10355 10352 10350 10347 10344 10343 10342 10342 10341 10339 10337 10336 10335 10334 10334 10334 10334 10336 10338 10340 10343 10345 10348 10351 10354 10357 10361 10367 10370 10373 10376 10380 10384 10390 10394 10397 10401 10405 10409 10413 10417 10422 10427 10432
10515 10512 10509 10505 10501 10498 10494 10491 10488 10485 10482 10479 10476 10473 10470 10466 10463 10459 10455 10451 10447 10443 10440 10437 10433 10430 10427 10424 10421 10418 10415 10411 10406 10402 10397 10392 10388 10384 10380 10375 10371 10366 10361 10357 10354 10351 10349 10348 10346 10344 10343 10342 10342 10341 10339 10337 10336 10334 10334 10333 10333 10333 10334 10336 10338 10340 10343 10346 10349 10351 10354 10359 10362 10362 10364 10367 10371 10376 10381 10385 10389 10394 10398 10402 10407 10411 10416 10421
10516 10513 10509 10506 10502 10498 10494 10491 10488 10485 10482 10479 10475 10472 10469 10466 10463 10459 10455 10451 10447 10443 10440 10436 10433 10429 10426 10423 10420 10417 10414 10410 10406 10402 10398 10395 10391 10386 10382 10379 10375 10370 10366 10362 10357 10353 10349 10346 10345 10345 10344 10343 10342 10341 10340 10338 10336 10334 10333 10333 10332 10332 10333 10333 10334 10336 10339 10341 10344 10347 10348 10351 10354 10353 10352 10355 10359 10364 10370 10375 10379 10383 10387 10392 10396 10401 10406 10410
10516 10513 10509 10506 10502 10498 10494 10491 10488 10484 10481 10478 10475 10472 10469 10466 10462 10459 10455 10451 10447 10443 10439 10436 10432 10429 10425 10422 10418 10415 10412 10409 10406 10403 10399 10396 10392 10388 10384 10379 10376 10372 10368 10364 10360 10357 10352 10347 10343 10342 10341 10340 10339 10338 10338 10338 10337 10335 10333 10331 10330 10330 10330 10331 10332 10333 10335 10336 10338 10340 10340 10340 10344 10346 10347 10351 10355 10358 10362 10365 10369 10372 10376 10380 10385 10390 10395 10400
10515 10512 10509 10506 10502 10498 10494 10491 10487 10484 10481 10478 10475 10472 10469 10465 10462 10459 10455 10451 10447 10443 10439 10435 10431 10428 10424 10421 10417 10414 10411 10408 10405 10402 10399 10396 10393 10390 10386 10382 10377 10373 10369 10365 10361 10358 10354 10351 10347 10344 10342 10340 10337 10335 10334 10335 10336 10335 10334 10332 10329 10328 10327 10328 10329 10330 10330 10331 10331 10332 10331 10332 10339 10345 10347 10351 10353 10353 10354 10356 10358 10362 10365 10368 10373 10378 10383 10388
10514 10511 10509 10506 10502 10498 10494 10490 10487 10484 10481 10478 10475 10472 10469 10465 10462 10459 10455 10452 10447 10443 10439 10434 10430 10426 10423 10420 10416 10412 10409 10406 10403 10400 10398 10395 10392 10390 10387 10383 10379 10375 10371 10367 10362 10358 10354 10351 10348 10345 10343 10343 10341 10337 10334 10332 10332 10332 10332 10331 10329 10327 10326 10325 10325 10325 10325 10326 10327 10328 10326 10325 10332 10338 10339 10341 10343 10342 10344 10347 10349 10352 10355 10357 10360 10364 10370 10375
10513 10510 10508 10505 10502 10498 10494 10490 10486 10483 10480 10477 10474 10471 10468 10465 10462 10458 10455 10451 10447 10443 10439 10434 10429 10425 10422 10418 10415 10411 10408 10405 10402 10399 10396 10394 10391 10389 10387 10384 10380 10376 10372 10368 10363 10358 10354 10351 10347 10343 10341 10340 10340 10338 10335 10332 10330 10328 10328 10328 10327 10327 10325 10324 10324 10321 10320 10320 10322 10325 10323 10317 10319 10326 10328 10329 10332 10332 10334 10337 10339 10342 10345 10347 10349 10352 10355 10360
10512 10509 10507 10504 10501 10498 10494 10490 10486 10483 10480 10477 10474 10471 10467 10464 10461 10458 10454 10451 10447 10443 10438 10434 10429 10424 10420 10417 10413 10409 10406 10402 10399 10396 10393 10391 10388 10386 10385 10382 10379 10375 10372 10368 10364 10359 10354 10350 10346 10343 10339 10337 10337 10337 10334 10330 10329 10327 10325 10324 10323 10323 10323 10323 10322 10320 10318 10316 10317 10319 10318 10312 10311 10318 10321 10321 10324 10324 10324 10325 10327 10330 10333 10337 10340 10341 10343 10347
10511 10508 10505 10502 10499 10497 10494 10489 10485 10482 10478 10476 10473 10469 10466 10464 10460 10457 10454 10450 10447 10443 10438 10433 10428 10424 10419 10416 10412 10408 10404 10400 10396 10393 10390 10387 10384 10382 10380 10379 10377 10374 10371 10369 10365 10361 10356 10350 10346 10342 10338 10335 10335 10336 10334 10329 10327 10326 10324 10322 10320 10319 10319 10319 10319 10318 10316 10315 10313 10312 10310 10307 10307 10313 10316 10315 10315 10315 10316 10317 10318 10319 10322 10326 10329 10330 10333 10336
10509 10506 10503 10500 10497 10495 10492 10488 10484 10480 10476 10474 10471 10468 10465 10463 10460 10457 10453 10450 10447 10443 10439 10434 10429 10424 10420 10416 10412 10407 10403 10399 10395 10391 10388 10385 10382 10379 10377 10375 10375 10373 10371 10369 10366 10362 10358 10353 10347 10342 10338 10334 10331 10333 10334 10330 10326 10324 10323 10321 10318 10316 10315 10315 10315 10314 10313 10312 10310 10307 10304 10300 10302 10307 10309 10309 10309 10309 10309 10309 10309 10310 10312 10315 10317 10319 10321 10324
10507 10504 10501 10498 10495 10492 10490 10487 10483 10478 10474 10471 10468 10465 10463 10461 10459 10456 10453 10449 10446 10443 10440 10435 10429 10424 10420 10416 10412 10408 10403 10399 10395 10391 10387 10384 10381 10379 10376 10373 10372 10370 10368 10367 10365 10363 10359 10355 10349 10344 10339 10334 10329 10328 10331 10330 10325 10322 10320 10318 10315 10313 10310 10310 10310 10311 10309 10307 10305 10303 10300 10296 10294 10297 10299 10300 10302 10304 10303 10301 10300 10301 10301 10302 10304 10306 10309 10310
10504 10501 10498 10495 10492 10490 10487 10484 10481 10477 10473 10469 10465 10462 10460 10458 10456 10454 10450 10447 10444 10441 10439 10435 10430 10425 10420 10415 10411 10407 10402 10397 10393 10390 10386 10382 10379 10377 10375 10372 10369 10367 10365 10363 10362 10361 10358 10354 10350 10344 10338 10334 10328 10323 10325 10326 10323 10319 10318 10315 10311 10309 10306 10303 10303 10305 10304 10302 10301 10298 10295 10291 10289 10288 10288 10288 10289 10292 10294 10294 10292 10291 10291 10290 10291 10293 10295 10296
10501 10498 10495 10492 10490 10487 10484 10482 10479 10475 10471 10467 10462 10459 10456 10454 10452 10450 10448 10444 10440 10437 10436 10433 10430 10424 10419 10414 10409 10405 10400 10396 10391 10386 10383 10379 10376 10373 10370 10368 10366 10364 10361 10360 10358 10358 10356 10353 10349 10343 10338 10333 10328 10321 10320 10322 10321 10316 10314 10312 10309 10306 10303 10298 10296 10297 10298 10296 10295 10293 10289 10285 10283 10282 10282 10281 10278 10277 10280 10282 10282 10282 10282 10281 10280 10280 10281 10283